Regional Weather Roundup
Issued by NWS

Home | Current Version | Previous Version | Text Only | Print | Product List | Glossary Off
Versions: 1 2 3 4 5 6 7 8 9 10 11 12 13 14 15 16 17 18 19 20 21 22 23 24 25 26 27 28 29 30 31 32 33 34 35 36 37 38 39 40 41 42 43 44 45 46 47 48 49 50

000
ASUS43 KOAX 020810
RWRNE

WEATHER ROUNDUP FOR NEBRASKA
NATIONAL WEATHER SERVICE OMAHA NE
300 AM CDT SUN AUG 02 2015

NOTES: SATELLITE DATA IS BEING USED TO AUGMENT CLOUD COVER ABOVE
       12000 FEET.
       "FAIR" INDICATES FEW OR NO CLOUDS BELOW 12,000 FEET WITH NO
       SIGNIFICANT WEATHER AND/OR OBSTRUCTIONS TO VISIBILITY.

  * THESE STATIONS DO NOT REPORT WEATHER SUCH AS RAIN...SNOW OR FOG.

NEZ001>004-019>022-054>056-020900-
NEBRASKA PANHANDLE

CITY           SKY/WX    TMP DP  RH WIND       PRES   REMARKS
SCOTTSBLUFF    CLEAR     69  55  60 CALM      30.01F
ALLIANCE       CLEAR     60  54  80 CALM      30.01S
CHADRON        CLEAR     65  55  70 SW8       29.95S
KIMBALL        MOCLDY    66  56  68 SW6       30.05F
SIDNEY         MOCLDY    62  55  77 S6        30.06S
$$

NEZ057>060-069>072-079>082-020900-
SOUTHWEST NEBRASKA

CITY           SKY/WX    TMP DP  RH WIND       PRES   REMARKS
NORTH PLATTE   MOCLDY    63  60  90 CALM      29.96F
IMPERIAL       CLOUDY    68  58  70 N3        29.99R
LEXINGTON      PTCLDY    66  64  91 CALM      29.94F
MCCOOK         CLOUDY    72  59  63 SW3       29.94F
OGALLALA       CLOUDY    67  59  75 E7        29.99R
$$

NEZ005>010-023>029-035>040-094-020900-
NORTH CENTRAL NEBRASKA

CITY           SKY/WX    TMP DP  RH WIND       PRES   REMARKS
AINSWORTH      CLEAR     65  60  85 SW10      29.90F
BROKEN BOW     CLEAR     62  59  90 CALM      29.94F
O`NEILL        CLEAR     65  62  87 S8        29.87F
ORD            CLEAR     63  61  93 SW5       29.89F
THEDFORD       CLEAR     61  59  94 CALM      29.96F
$$

NEZ041-046>049-061>064-073>077-083>087-020900-
SOUTH CENTRAL NEBRASKA

CITY           SKY/WX    TMP DP  RH WIND       PRES   REMARKS
GRAND ISLAND   PTCLDY    73  65  75 SW10      29.91S
AURORA         PTCLDY    71  67  88 SW8       29.91R
HASTINGS       PTCLDY    71  64  78 SW6       29.92S
HEBRON         CLEAR     73  66  79 SW6       29.91F
HOLDREGE       MOCLDY    69  61  74 S7        29.93F
KEARNEY *      PTCLDY    72  61  68 SW8       29.92F
YORK           PTCLDY    70  68  94 SW8       29.90S
$$

NEZ011>018-030>034-042>045-020900-
NORTHEAST NEBRASKA

CITY           SKY/WX    TMP DP  RH WIND       PRES   REMARKS
NORFOLK        PTCLDY    65  64  97 SE5       29.85F
ALBION         PTCLDY    64  62  91 CALM      29.88F
BLAIR          CLEAR     73  69  89 S10       29.87F
COLUMBUS *     MOCLDY    72  64  78 SW5       29.87F
FREMONT        CLEAR     75  69  80 S9        29.86F
TEKAMAH        PTCLDY    71  69  93 S6        29.83F
WAYNE          PTCLDY    68  66  93 CALM      29.85F
$$

NEZ050>053-065>068-078-088>093-020900-
SOUTHEAST NEBRASKA

CITY           SKY/WX    TMP DP  RH WIND       PRES   REMARKS
LINCOLN        CLEAR     73  69  87 S10       29.88F
OMAHA EPPLEY   MOCLDY    73  69  87 S12       29.87F
BEATRICE       CLEAR     73  68  82 S7        29.91S
FALLS CITY     CLEAR     72  66  81 S9        29.90F
NEBRASKA CITY  CLEAR     70  68  94 S9        29.90F
PLATTSMOUTH    CLEAR     71  68  91 S10       29.89F
$$

NEZ044-045-051>053-067-020900-
OMAHA AREA

CITY           SKY/WX    TMP DP  RH WIND       PRES   REMARKS
OMAHA EPPLEY   MOCLDY    73  69  87 S12       29.87F
BLAIR          CLEAR     73  69  89 S10       29.87F
FREMONT        CLEAR     75  69  80 S9        29.86F
MILLARD        CLEAR     73  71  92 SE5       29.87F
OFFUTT AFB     CLEAR     71  68  90 E6        29.87F
PLATTSMOUTH    CLEAR     71  68  91 S10       29.89F
WAHOO          FAIR      69  67  95 S7        29.86F
$$


USA.gov is the U.S. government's official web portal to all federal, state and local government web resources and services.